Time,TemperatureF,DewpointF,PressureIn,WindDirection,WindDirectionDegrees,WindSpeedMPH,WindSpeedGustMPH,Humidity,HourlyPrecipIn,Conditions,Clouds,dailyrainin,SoftwareType,DateUTC
2013-06-08 00:02:00,63.5,11.8,17.72,SW,222,3.1,3.1,13,0.00,,---,0.00,VWS V14.01,2013-06-08 07:02:00,
2013-06-08 00:07:00,63.3,11.7,17.72,WSW,247,4.0,4.0,13,0.00,,---,0.00,VWS V14.01,2013-06-08 07:07:00,
2013-06-08 00:12:00,63.1,11.5,17.72,SSE,153,4.0,4.0,13,0.00,,---,0.00,VWS V14.01,2013-06-08 07:12:00,
2013-06-08 00:17:00,62.4,12.6,17.72,SSE,162,8.1,8.1,14,0.00,,---,0.00,VWS V14.01,2013-06-08 07:17:00,
2013-06-08 00:22:00,61.3,11.8,17.72,SSE,166,0.0,4.0,14,0.00,,---,0.00,VWS V14.01,2013-06-08 07:22:00,
2013-06-08 00:27:00,60.6,11.2,17.72,SW,214,0.0,0.0,14,0.00,,---,0.00,VWS V14.01,2013-06-08 07:27:00,
2013-06-08 00:32:00,60.3,10.9,17.72,SW,214,0.0,0.0,14,0.00,,---,0.00,VWS V14.01,2013-06-08 07:32:00,
2013-06-08 00:37:00,59.7,10.5,17.72,SSE,167,3.6,4.0,14,0.00,,---,0.00,VWS V14.01,2013-06-08 07:37:00,
2013-06-08 00:42:00,59.4,10.2,17.72,SE,143,3.1,4.9,14,0.00,,---,0.00,VWS V14.01,2013-06-08 07:42:00,
2013-06-08 00:47:00,59.0,9.9,17.72,SSE,152,3.6,8.1,14,0.00,,---,0.00,VWS V14.01,2013-06-08 07:47:00,
2013-06-08 00:52:00,58.8,9.8,17.72,SSE,159,8.7,8.7,14,0.00,,---,0.00,VWS V14.01,2013-06-08 07:52:00,
2013-06-08 00:57:00,58.8,9.8,17.72,SE,141,3.1,7.2,14,0.00,,---,0.00,VWS V14.01,2013-06-08 07:57:00,
2013-06-08 01:02:00,58.6,9.6,17.72,South,172,4.0,6.3,14,0.00,,---,0.00,VWS V14.01,2013-06-08 08:02:00,
2013-06-08 01:07:00,58.5,9.5,17.72,SSW,199,4.0,6.3,14,0.00,,---,0.00,VWS V14.01,2013-06-08 08:07:00,
2013-06-08 01:12:00,58.1,9.2,17.72,SSW,204,7.2,7.2,14,0.00,,---,0.00,VWS V14.01,2013-06-08 08:12:00,
2013-06-08 01:17:00,57.9,9.0,17.72,SSW,196,0.0,3.1,14,0.00,,---,0.00,VWS V14.01,2013-06-08 08:17:00,
2013-06-08 01:22:00,57.7,8.9,17.72,SE,141,3.6,5.4,14,0.00,,---,0.00,VWS V14.01,2013-06-08 08:22:00,
2013-06-08 01:27:00,57.6,8.7,17.72,SSW,202,0.0,5.8,14,0.00,,---,0.00,VWS V14.01,2013-06-08 08:27:00,
2013-06-08 01:32:00,57.2,8.4,17.72,SSE,151,5.4,5.8,14,0.00,,---,0.00,VWS V14.01,2013-06-08 08:32:00,
2013-06-08 01:37:00,57.2,8.4,17.72,South,189,2.7,6.3,14,0.00,,---,0.00,VWS V14.01,2013-06-08 08:37:00,
2013-06-08 01:42:00,57.2,8.4,17.72,SSE,164,3.1,4.0,14,0.00,,---,0.00,VWS V14.01,2013-06-08 08:42:00,
2013-06-08 01:47:00,56.8,9.7,17.72,SSW,209,2.7,3.6,15,0.00,,---,0.00,VWS V14.01,2013-06-08 08:47:00,
2013-06-08 01:52:00,56.7,9.6,17.72,SSW,201,4.0,4.0,15,0.00,,---,0.00,VWS V14.01,2013-06-08 08:52:00,
2013-06-08 01:57:00,56.5,9.4,17.72,South,172,5.4,8.3,15,0.00,,---,0.00,VWS V14.01,2013-06-08 08:57:00,
2013-06-08 02:02:00,56.3,9.3,17.72,SSE,167,3.6,3.6,15,0.00,,---,0.00,VWS V14.01,2013-06-08 09:02:00,
2013-06-08 02:07:00,55.9,9.0,17.72,South,173,6.3,7.6,15,0.00,,---,0.00,VWS V14.01,2013-06-08 09:07:00,
2013-06-08 02:12:00,55.8,8.8,17.72,SE,137,5.8,6.3,15,0.00,,---,0.00,VWS V14.01,2013-06-08 09:12:00,
2013-06-08 02:17:00,55.6,8.7,17.72,South,171,6.3,10.5,15,0.00,,---,0.00,VWS V14.01,2013-06-08 09:17:00,
2013-06-08 02:22:00,55.4,8.5,17.72,South,181,5.8,8.3,15,0.00,,---,0.00,VWS V14.01,2013-06-08 09:22:00,
2013-06-08 02:27:00,54.9,8.1,17.72,South,177,5.8,5.8,15,0.00,,---,0.00,VWS V14.01,2013-06-08 09:27:00,
2013-06-08 02:32:00,54.5,7.8,17.72,SE,145,7.6,10.1,15,0.00,,---,0.00,VWS V14.01,2013-06-08 09:32:00,
2013-06-08 02:37:00,54.1,7.5,17.72,SSW,198,7.6,7.6,15,0.00,,---,0.00,VWS V14.01,2013-06-08 09:37:00,
2013-06-08 02:42:00,54.0,7.4,17.72,SSE,167,5.4,8.7,15,0.00,,---,0.00,VWS V14.01,2013-06-08 09:42:00,
2013-06-08 02:47:00,53.8,7.2,17.72,South,172,3.6,5.4,15,0.00,,---,0.00,VWS V14.01,2013-06-08 09:47:00,
2013-06-08 02:52:00,53.4,8.4,17.72,South,173,4.0,4.0,16,0.00,,---,0.00,VWS V14.01,2013-06-08 09:52:00,
2013-06-08 02:57:00,53.2,8.2,17.72,SSW,199,6.3,8.3,16,0.00,,---,0.00,VWS V14.01,2013-06-08 09:57:00,
2013-06-08 03:02:00,53.2,8.2,17.72,South,179,3.6,5.8,16,0.00,,---,0.00,VWS V14.01,2013-06-08 10:02:00,
2013-06-08 03:07:00,53.1,8.1,17.72,SSE,162,7.2,7.2,16,0.00,,---,0.00,VWS V14.01,2013-06-08 10:07:00,
2013-06-08 03:12:00,53.1,8.1,17.72,SSE,163,5.8,7.6,16,0.00,,---,0.00,VWS V14.01,2013-06-08 10:12:00,
2013-06-08 03:17:00,53.1,8.1,17.72,SSE,157,6.3,10.5,16,0.00,,---,0.00,VWS V14.01,2013-06-08 10:17:00,
2013-06-08 03:22:00,53.1,8.1,17.72,SSW,200,4.5,11.0,16,0.00,,---,0.00,VWS V14.01,2013-06-08 10:22:00,
2013-06-08 03:27:00,53.1,8.1,17.72,South,176,5.8,11.0,16,0.00,,---,0.00,VWS V14.01,2013-06-08 10:27:00,
2013-06-08 03:32:00,53.1,8.1,17.72,South,169,8.7,12.8,16,0.00,,---,0.00,VWS V14.01,2013-06-08 10:32:00,
2013-06-08 03:37:00,53.1,8.1,17.72,SSE,159,5.4,10.1,16,0.00,,---,0.00,VWS V14.01,2013-06-08 10:37:00,
2013-06-08 03:42:00,52.9,7.9,17.72,SSE,161,5.8,5.8,16,0.00,,---,0.00,VWS V14.01,2013-06-08 10:42:00,
2013-06-08 03:47:00,52.9,7.9,17.72,South,179,4.0,5.4,16,0.00,,---,0.00,VWS V14.01,2013-06-08 10:47:00,
2013-06-08 03:52:00,52.7,7.8,17.72,SE,144,9.6,13.2,16,0.00,,---,0.00,VWS V14.01,2013-06-08 10:52:00,
2013-06-08 03:57:00,52.5,7.6,17.72,South,182,5.4,8.7,16,0.00,,---,0.00,VWS V14.01,2013-06-08 10:57:00,
2013-06-08 04:02:00,52.5,7.6,17.72,SSE,168,15.4,15.4,16,0.00,,---,0.00,VWS V14.01,2013-06-08 11:02:00,
2013-06-08 04:07:00,52.3,7.5,17.72,ESE,120,10.5,13.6,16,0.00,,---,0.00,VWS V14.01,2013-06-08 11:07:00,
2013-06-08 04:12:00,52.2,7.3,17.72,South,176,4.9,6.3,16,0.00,,---,0.00,VWS V14.01,2013-06-08 11:12:00,
2013-06-08 04:17:00,52.0,7.2,17.72,South,186,0.0,0.0,16,0.00,,---,0.00,VWS V14.01,2013-06-08 11:17:00,
2013-06-08 04:22:00,52.0,7.2,17.72,South,177,0.0,0.0,16,0.00,,---,0.00,VWS V14.01,2013-06-08 11:22:00,
2013-06-08 04:27:00,51.8,7.1,17.72,South,176,0.0,0.0,16,0.00,,---,0.00,VWS V14.01,2013-06-08 11:27:00,
2013-06-08 04:32:00,51.6,6.9,17.72,South,189,0.0,0.0,16,0.00,,---,0.00,VWS V14.01,2013-06-08 11:32:00,
2013-06-08 04:37:00,51.6,6.9,17.72,SE,137,0.0,0.0,16,0.00,,---,0.00,VWS V14.01,2013-06-08 11:37:00,
2013-06-08 04:42:00,51.6,6.9,17.72,SSE,158,0.0,0.0,16,0.00,,---,0.00,VWS V14.01,2013-06-08 11:42:00,
2013-06-08 04:47:00,51.8,7.1,17.72,South,178,0.0,0.0,16,0.00,,---,0.00,VWS V14.01,2013-06-08 11:47:00,
2013-06-08 04:52:00,51.8,9.7,17.72,SSE,156,0.0,0.0,18,0.00,,---,0.00,VWS V14.01,2013-06-08 11:52:00,
2013-06-08 04:57:00,51.6,10.7,17.72,SSW,193,0.0,0.0,19,0.00,,---,0.00,VWS V14.01,2013-06-08 11:57:00,
2013-06-08 05:02:00,51.4,10.6,17.72,SE,133,0.0,0.0,19,0.00,,---,0.00,VWS V14.01,2013-06-08 12:02:00,
2013-06-08 05:07:00,51.6,10.7,17.72,SE,141,0.0,0.0,19,0.00,,---,0.00,VWS V14.01,2013-06-08 12:07:00,
2013-06-08 05:12:00,51.6,10.7,17.72,SSE,148,0.0,0.0,19,0.00,,---,0.00,VWS V14.01,2013-06-08 12:12:00,
2013-06-08 05:17:00,51.6,10.7,17.72,South,191,0.0,0.0,19,0.00,,---,0.00,VWS V14.01,2013-06-08 12:17:00,
2013-06-08 05:22:00,51.6,10.7,17.72,ESE,118,0.0,0.0,19,0.00,,---,0.00,VWS V14.01,2013-06-08 12:22:00,
2013-06-08 05:27:00,51.6,10.7,17.72,South,181,0.0,0.0,19,0.00,,---,0.00,VWS V14.01,2013-06-08 12:27:00,
2013-06-08 05:32:00,51.8,9.7,17.72,South,175,0.0,0.0,18,0.00,,---,0.00,VWS V14.01,2013-06-08 12:32:00,
2013-06-08 05:37:00,52.0,9.8,17.72,ESE,122,0.0,0.0,18,0.00,,---,0.00,VWS V14.01,2013-06-08 12:37:00,
2013-06-08 05:42:00,52.0,9.8,17.72,South,185,0.0,0.0,18,0.00,,---,0.00,VWS V14.01,2013-06-08 12:42:00,
2013-06-08 05:47:00,52.2,10.0,17.72,South,169,0.0,0.0,18,0.00,,---,0.00,VWS V14.01,2013-06-08 12:47:00,
2013-06-08 05:52:00,52.3,10.1,17.72,SSE,164,5.8,8.1,18,0.00,,---,0.00,VWS V14.01,2013-06-08 12:52:00,
2013-06-08 05:57:00,52.5,10.2,17.72,SE,142,3.1,6.3,18,0.00,,---,0.00,VWS V14.01,2013-06-08 12:57:00,
2013-06-08 06:02:00,52.9,10.6,17.72,SSE,165,2.7,5.8,18,0.00,,---,0.00,VWS V14.01,2013-06-08 13:02:00,
2013-06-08 06:07:00,53.1,10.7,17.72,South,172,2.7,4.0,18,0.00,,---,0.00,VWS V14.01,2013-06-08 13:07:00,
2013-06-08 06:12:00,53.2,10.9,17.72,SSE,157,5.8,5.8,18,0.00,,---,0.00,VWS V14.01,2013-06-08 13:12:00,
2013-06-08 06:17:00,53.4,11.0,17.72,SE,146,6.3,6.3,18,0.00,,---,0.00,VWS V14.01,2013-06-08 13:17:00,
2013-06-08 06:22:00,53.6,11.1,17.72,South,189,4.0,5.8,18,0.00,,---,0.00,VWS V14.01,2013-06-08 13:22:00,
2013-06-08 06:27:00,53.8,11.3,17.72,SSE,168,3.1,5.4,18,0.00,,---,0.00,VWS V14.01,2013-06-08 13:27:00,
2013-06-08 06:32:00,54.0,11.4,17.72,SSE,166,5.4,8.3,18,0.00,,---,0.00,VWS V14.01,2013-06-08 13:32:00,
2013-06-08 06:37:00,54.0,11.4,17.72,SSE,168,5.8,6.3,18,0.00,,---,0.00,VWS V14.01,2013-06-08 13:37:00,
2013-06-08 06:42:00,54.1,11.6,17.72,SE,124,8.3,8.7,18,0.00,,---,0.00,VWS V14.01,2013-06-08 13:42:00,
2013-06-08 06:47:00,54.3,11.7,17.72,SSE,165,4.9,8.1,18,0.00,,---,0.00,VWS V14.01,2013-06-08 13:47:00,
2013-06-08 06:52:00,54.5,11.9,17.72,South,172,3.1,5.4,18,0.00,,---,0.00,VWS V14.01,2013-06-08 13:52:00,
2013-06-08 06:57:00,54.7,8.0,17.72,SE,141,6.3,7.2,15,0.00,,---,0.00,VWS V14.01,2013-06-08 13:57:00,
2013-06-08 07:02:00,55.2,8.4,17.72,South,178,5.4,6.3,15,0.00,,---,0.00,VWS V14.01,2013-06-08 14:02:00,
2013-06-08 07:07:00,55.4,8.5,17.72,South,190,5.8,8.7,15,0.00,,---,0.00,VWS V14.01,2013-06-08 14:07:00,
2013-06-08 07:12:00,55.6,8.7,17.72,SSE,158,3.6,5.4,15,0.00,,---,0.00,VWS V14.01,2013-06-08 14:12:00,
2013-06-08 07:17:00,55.9,9.0,17.72,ESE,119,5.4,8.3,15,0.00,,---,0.00,VWS V14.01,2013-06-08 14:17:00,
2013-06-08 07:22:00,56.1,11.9,17.72,South,174,0.0,3.6,17,0.00,,---,0.00,VWS V14.01,2013-06-08 14:22:00,
2013-06-08 07:27:00,56.3,9.3,17.72,SE,145,6.3,6.3,15,0.00,,---,0.00,VWS V14.01,2013-06-08 14:27:00,
2013-06-08 07:32:00,56.5,9.4,17.72,South,182,5.4,6.3,15,0.00,,---,0.00,VWS V14.01,2013-06-08 14:32:00,
2013-06-08 07:37:00,56.5,9.4,17.72,South,179,5.8,8.1,15,0.00,,---,0.00,VWS V14.01,2013-06-08 14:37:00,
2013-06-08 07:42:00,56.7,9.6,17.72,SSE,150,5.8,8.1,15,0.00,,---,0.00,VWS V14.01,2013-06-08 14:42:00,
2013-06-08 07:47:00,57.0,9.8,17.72,South,171,8.3,8.7,15,0.00,,---,0.00,VWS V14.01,2013-06-08 14:47:00,
2013-06-08 07:52:00,57.4,8.6,17.72,South,182,7.6,7.6,14,0.00,,---,0.00,VWS V14.01,2013-06-08 14:52:00,
2013-06-08 07:57:00,57.6,8.7,17.72,SSE,153,4.0,8.3,14,0.00,,---,0.00,VWS V14.01,2013-06-08 14:57:00,
2013-06-08 08:02:00,58.3,9.3,17.72,SSW,193,10.1,10.1,14,0.00,,---,0.00,VWS V14.01,2013-06-08 15:02:00,
2013-06-08 08:07:00,58.5,9.5,17.72,SSE,164,4.0,6.3,14,0.00,,---,0.00,VWS V14.01,2013-06-08 15:07:00,
2013-06-08 08:12:00,58.8,9.8,17.72,South,184,4.0,6.3,14,0.00,,---,0.00,VWS V14.01,2013-06-08 15:12:00,
2013-06-08 08:17:00,59.2,10.0,17.72,SW,235,6.3,7.6,14,0.00,,---,0.00,VWS V14.01,2013-06-08 15:17:00,
2013-06-08 08:22:00,59.7,10.5,17.72,SSW,201,2.7,5.4,14,0.00,,---,0.00,VWS V14.01,2013-06-08 15:22:00,
2013-06-08 08:27:00,60.3,10.9,17.72,South,173,4.0,4.9,14,0.00,,---,0.00,VWS V14.01,2013-06-08 15:27:00,
2013-06-08 08:32:00,60.4,11.0,17.72,SSE,164,5.4,5.8,14,0.00,,---,0.00,VWS V14.01,2013-06-08 15:32:00,
2013-06-08 08:37:00,60.3,10.9,17.72,SSW,198,5.4,5.8,14,0.00,,---,0.00,VWS V14.01,2013-06-08 15:37:00,
2013-06-08 08:42:00,60.4,11.0,17.72,SSW,212,8.1,10.5,14,0.00,,---,0.00,VWS V14.01,2013-06-08 15:42:00,
2013-06-08 08:47:00,60.8,11.3,17.72,SSE,162,5.4,8.3,14,0.00,,---,0.00,VWS V14.01,2013-06-08 15:47:00,
2013-06-08 08:52:00,61.0,11.5,17.72,SSE,156,8.7,8.7,14,0.00,,---,0.00,VWS V14.01,2013-06-08 15:52:00,
2013-06-08 08:57:00,61.0,11.5,17.72,ESE,118,4.9,8.3,14,0.00,,---,0.00,VWS V14.01,2013-06-08 15:57:00,
2013-06-08 09:02:00,61.3,11.8,17.72,SSE,160,7.6,7.6,14,0.00,,---,0.00,VWS V14.01,2013-06-08 16:02:00,
2013-06-08 09:07:00,61.7,12.1,17.72,South,170,6.7,6.7,14,0.00,,---,0.00,VWS V14.01,2013-06-08 16:07:00,
2013-06-08 09:12:00,61.9,12.2,17.72,South,177,6.3,7.6,14,0.00,,---,0.00,VWS V14.01,2013-06-08 16:12:00,
2013-06-08 09:17:00,61.7,12.1,17.72,SSW,197,5.8,10.5,14,0.00,,---,0.00,VWS V14.01,2013-06-08 16:17:00,
2013-06-08 09:22:00,61.7,12.1,17.72,SSW,195,7.6,7.6,14,0.00,,---,0.00,VWS V14.01,2013-06-08 16:22:00,
2013-06-08 09:27:00,62.1,12.3,17.72,South,176,5.4,8.1,14,0.00,,---,0.00,VWS V14.01,2013-06-08 16:27:00,
2013-06-08 09:32:00,62.6,11.1,17.72,South,180,8.3,8.3,13,0.00,,---,0.00,VWS V14.01,2013-06-08 16:32:00,
2013-06-08 09:37:00,63.1,11.5,17.72,South,173,5.8,7.2,13,0.00,,---,0.00,VWS V14.01,2013-06-08 16:37:00,
2013-06-08 09:42:00,63.3,11.7,17.72,South,189,5.8,9.6,13,0.00,,---,0.00,VWS V14.01,2013-06-08 16:42:00,
2013-06-08 09:47:00,63.5,11.8,17.72,SSE,148,8.3,8.7,13,0.00,,---,0.00,VWS V14.01,2013-06-08 16:47:00,
2013-06-08 09:52:00,63.1,11.5,17.72,SSE,158,10.5,10.5,13,0.00,,---,0.00,VWS V14.01,2013-06-08 16:52:00,
2013-06-08 09:57:00,63.1,11.5,17.72,South,173,5.4,10.1,13,0.00,,---,0.00,VWS V14.01,2013-06-08 16:57:00,
2013-06-08 10:02:00,63.3,11.7,17.72,SSE,158,7.2,7.2,13,0.00,,---,0.00,VWS V14.01,2013-06-08 17:02:00,
2013-06-08 10:07:00,63.7,11.9,17.72,ESE,110,8.7,10.5,13,0.00,,---,0.00,VWS V14.01,2013-06-08 17:07:00,
2013-06-08 10:12:00,63.9,12.1,17.72,South,183,8.1,11.0,13,0.00,,---,0.00,VWS V14.01,2013-06-08 17:12:00,
2013-06-08 10:17:00,64.4,12.5,17.72,SSW,200,5.8,8.7,13,0.00,,---,0.00,VWS V14.01,2013-06-08 17:17:00,
2013-06-08 10:22:00,64.8,12.8,17.72,SSE,152,4.0,5.4,13,0.00,,---,0.00,VWS V14.01,2013-06-08 17:22:00,
2013-06-08 10:27:00,65.1,13.1,17.72,SSE,154,6.3,7.2,13,0.00,,---,0.00,VWS V14.01,2013-06-08 17:27:00,
2013-06-08 10:32:00,65.7,13.5,17.72,South,191,8.3,8.3,13,0.00,,---,0.00,VWS V14.01,2013-06-08 17:32:00,
2013-06-08 10:37:00,66.2,12.1,17.72,South,176,4.0,7.2,12,0.00,,---,0.00,VWS V14.01,2013-06-08 17:37:00,
2013-06-08 10:42:00,66.6,12.4,17.72,SSE,152,8.7,8.7,12,0.00,,---,0.00,VWS V14.01,2013-06-08 17:42:00,
2013-06-08 10:47:00,66.9,12.7,17.72,SSE,152,8.1,8.1,12,0.00,,---,0.00,VWS V14.01,2013-06-08 17:47:00,
2013-06-08 10:52:00,67.3,13.0,17.72,SW,220,3.6,7.6,12,0.00,,---,0.00,VWS V14.01,2013-06-08 17:52:00,
2013-06-08 10:57:00,67.5,13.1,17.72,South,179,9.2,10.1,12,0.00,,---,0.00,VWS V14.01,2013-06-08 17:57:00,
2013-06-08 11:02:00,67.5,13.1,17.72,SSE,158,4.0,8.1,12,0.00,,---,0.00,VWS V14.01,2013-06-08 18:02:00,
2013-06-08 11:07:00,67.6,13.2,17.72,South,170,3.6,6.3,12,0.00,,---,0.00,VWS V14.01,2013-06-08 18:07:00,
2013-06-08 11:12:00,68.0,13.5,17.72,South,172,3.1,10.1,12,0.00,,---,0.00,VWS V14.01,2013-06-08 18:12:00,
2013-06-08 11:17:00,68.7,14.1,17.72,SSE,149,4.0,8.3,12,0.00,,---,0.00,VWS V14.01,2013-06-08 18:17:00,
2013-06-08 11:22:00,68.4,13.8,17.72,SSE,159,3.6,5.8,12,0.00,,---,0.00,VWS V14.01,2013-06-08 18:22:00,
2013-06-08 11:27:00,67.8,13.4,17.72,South,177,6.3,6.7,12,0.00,,---,0.00,VWS V14.01,2013-06-08 18:27:00,
2013-06-08 11:32:00,67.6,13.2,17.72,SSE,157,5.8,8.3,12,0.00,,---,0.00,VWS V14.01,2013-06-08 18:32:00,
2013-06-08 11:37:00,68.0,13.5,17.72,SSE,147,5.4,6.3,12,0.00,,---,0.00,VWS V14.01,2013-06-08 18:37:00,
2013-06-08 11:42:00,68.4,13.8,17.72,SSW,210,3.1,5.4,12,0.00,,---,0.00,VWS V14.01,2013-06-08 18:42:00,
2013-06-08 11:47:00,68.9,14.2,17.72,South,173,5.8,7.6,12,0.00,,---,0.00,VWS V14.01,2013-06-08 18:47:00,
2013-06-08 11:52:00,69.4,14.6,17.72,SSE,164,7.6,8.3,12,0.00,,---,0.00,VWS V14.01,2013-06-08 18:52:00,
2013-06-08 11:57:00,70.0,15.1,17.72,SSE,160,5.4,5.8,12,0.00,,---,0.00,VWS V14.01,2013-06-08 18:57:00,
2013-06-08 12:02:00,70.3,15.4,17.72,WSW,247,3.1,4.0,12,0.00,,---,0.00,VWS V14.01,2013-06-08 19:02:00,
2013-06-08 12:07:00,70.7,15.6,17.72,SSW,194,5.4,8.1,12,0.00,,---,0.00,VWS V14.01,2013-06-08 19:07:00,
2013-06-08 12:12:00,70.7,15.6,17.72,South,185,7.6,10.5,12,0.00,,---,0.00,VWS V14.01,2013-06-08 19:12:00,
2013-06-08 12:17:00,70.9,15.8,17.72,SSW,211,8.7,8.7,12,0.00,,---,0.00,VWS V14.01,2013-06-08 19:17:00,
2013-06-08 12:22:00,71.2,16.1,17.72,SSE,162,3.1,6.3,12,0.00,,---,0.00,VWS V14.01,2013-06-08 19:22:00,
2013-06-08 12:27:00,71.2,16.1,17.72,SW,214,8.3,8.7,12,0.00,,---,0.00,VWS V14.01,2013-06-08 19:27:00,
2013-06-08 12:32:00,71.4,16.2,17.72,SSW,197,6.3,6.3,12,0.00,,---,0.00,VWS V14.01,2013-06-08 19:32:00,
2013-06-08 12:37:00,71.2,16.1,17.72,SSW,205,5.4,8.1,12,0.00,,---,0.00,VWS V14.01,2013-06-08 19:37:00,
2013-06-08 12:42:00,71.8,20.1,17.72,South,182,3.1,4.0,14,0.00,,---,0.00,VWS V14.01,2013-06-08 19:42:00,
2013-06-08 12:47:00,72.3,20.5,17.72,SW,220,8.7,8.7,14,0.00,,---,0.00,VWS V14.01,2013-06-08 19:47:00,
2013-06-08 12:52:00,72.1,14.8,17.72,South,183,8.1,8.1,11,0.00,,---,0.00,VWS V14.01,2013-06-08 19:52:00,
2013-06-08 12:57:00,72.1,20.4,17.72,WSW,237,5.8,6.3,14,0.00,,---,0.00,VWS V14.01,2013-06-08 19:57:00,
2013-06-08 13:02:00,72.9,20.9,17.72,WSW,249,4.0,5.4,14,0.00,,---,0.00,VWS V14.01,2013-06-08 20:02:00,
2013-06-08 13:07:00,73.2,21.2,17.72,South,183,2.7,5.4,14,0.00,,---,0.00,VWS V14.01,2013-06-08 20:07:00,
2013-06-08 13:12:00,73.6,19.8,17.72,SW,217,0.0,0.0,13,0.00,,---,0.00,VWS V14.01,2013-06-08 20:12:00,
2013-06-08 13:17:00,73.6,19.8,17.72,South,170,0.0,0.0,13,0.00,,---,0.00,VWS V14.01,2013-06-08 20:17:00,
2013-06-08 13:22:00,73.6,19.8,17.72,SW,223,0.0,0.0,13,0.00,,---,0.00,VWS V14.01,2013-06-08 20:22:00,
2013-06-08 13:27:00,73.9,20.0,17.72,SSE,160,0.0,0.0,13,0.00,,---,0.00,VWS V14.01,2013-06-08 20:27:00,
2013-06-08 13:32:00,73.9,20.0,17.72,SSW,195,0.0,0.0,13,0.00,,---,0.00,VWS V14.01,2013-06-08 20:32:00,
2013-06-08 13:37:00,74.1,20.2,17.72,WSW,237,0.0,0.0,13,0.00,,---,0.00,VWS V14.01,2013-06-08 20:37:00,
2013-06-08 13:42:00,74.5,20.5,17.72,West,265,0.0,0.0,13,0.00,,---,0.00,VWS V14.01,2013-06-08 20:42:00,
2013-06-08 13:47:00,74.8,20.7,17.72,SSE,163,0.0,0.0,13,0.00,,---,0.00,VWS V14.01,2013-06-08 20:47:00,
2013-06-08 13:52:00,74.3,20.3,17.72,South,169,0.0,0.0,13,0.00,,---,0.00,VWS V14.01,2013-06-08 20:52:00,
2013-06-08 13:57:00,74.5,20.5,17.72,SSE,156,0.0,0.0,13,0.00,,---,0.00,VWS V14.01,2013-06-08 20:57:00,
2013-06-08 14:02:00,74.3,20.3,17.72,SE,145,0.0,0.0,13,0.00,,---,0.00,VWS V14.01,2013-06-08 21:02:00,
2013-06-08 14:07:00,74.7,20.6,17.72,SSW,201,0.0,0.0,13,0.00,,---,0.00,VWS V14.01,2013-06-08 21:07:00,
2013-06-08 14:12:00,75.2,21.0,17.72,South,178,0.0,0.0,13,0.00,,---,0.00,VWS V14.01,2013-06-08 21:12:00,
2013-06-08 14:17:00,75.2,21.0,17.72,South,170,0.0,0.0,13,0.00,,---,0.00,VWS V14.01,2013-06-08 21:17:00,
2013-06-08 14:22:00,75.6,21.3,17.72,South,191,0.0,0.0,13,0.00,,---,0.00,VWS V14.01,2013-06-08 21:22:00,
2013-06-08 14:27:00,75.7,21.5,17.72,SSW,193,0.0,0.0,13,0.00,,---,0.00,VWS V14.01,2013-06-08 21:27:00,
2013-06-08 14:32:00,75.7,21.5,17.72,South,172,0.0,0.0,13,0.00,,---,0.00,VWS V14.01,2013-06-08 21:32:00,
2013-06-08 14:37:00,75.9,21.6,17.72,SW,236,0.0,0.0,13,0.00,,---,0.00,VWS V14.01,2013-06-08 21:37:00,
2013-06-08 14:42:00,75.9,21.6,17.72,SSW,193,0.0,0.0,13,0.00,,---,0.00,VWS V14.01,2013-06-08 21:42:00,
2013-06-08 14:47:00,76.1,21.7,17.72,WSW,247,0.0,0.0,13,0.00,,---,0.00,VWS V14.01,2013-06-08 21:47:00,
2013-06-08 14:52:00,76.5,22.0,17.72,South,184,0.0,0.0,13,0.00,,---,0.00,VWS V14.01,2013-06-08 21:52:00,
2013-06-08 14:57:00,76.3,21.9,17.72,South,190,0.0,0.0,13,0.00,,---,0.00,VWS V14.01,2013-06-08 21:57:00,
2013-06-08 15:02:00,76.8,22.3,17.72,SSE,165,0.0,0.0,13,0.00,,---,0.00,VWS V14.01,2013-06-08 22:02:00,
2013-06-08 15:07:00,77.2,22.6,17.72,SSE,168,0.0,0.0,13,0.00,,---,0.00,VWS V14.01,2013-06-08 22:07:00,
2013-06-08 15:12:00,76.3,21.9,17.72,SSE,150,0.0,0.0,13,0.00,,---,0.00,VWS V14.01,2013-06-08 22:12:00,
2013-06-08 15:17:00,76.3,21.9,17.72,SSW,200,0.0,0.0,13,0.00,,---,0.00,VWS V14.01,2013-06-08 22:17:00,
2013-06-08 15:22:00,76.3,21.9,17.72,SSW,193,0.0,0.0,13,0.00,,---,0.00,VWS V14.01,2013-06-08 22:22:00,
2013-06-08 15:27:00,76.5,22.0,17.72,SE,141,0.0,0.0,13,0.00,,---,0.00,VWS V14.01,2013-06-08 22:27:00,
2013-06-08 15:32:00,76.5,22.0,17.72,South,183,0.0,0.0,13,0.00,,---,0.00,VWS V14.01,2013-06-08 22:32:00,
2013-06-08 15:37:00,76.5,22.0,17.72,SSW,193,0.0,0.0,13,0.00,,---,0.00,VWS V14.01,2013-06-08 22:37:00,
2013-06-08 15:42:00,76.5,22.0,17.72,SSE,163,0.0,0.0,13,0.00,,---,0.00,VWS V14.01,2013-06-08 22:42:00,
2013-06-08 15:47:00,76.3,21.9,17.72,South,178,0.0,0.0,13,0.00,,---,0.00,VWS V14.01,2013-06-08 22:47:00,
2013-06-08 15:52:00,76.3,21.9,17.72,SSE,155,0.0,0.0,13,0.00,,---,0.00,VWS V14.01,2013-06-08 22:52:00,
2013-06-08 15:57:00,76.6,22.1,17.72,South,171,0.0,0.0,13,0.00,,---,0.00,VWS V14.01,2013-06-08 22:57:00,
2013-06-08 16:02:00,76.8,22.3,17.72,West,259,0.0,0.0,13,0.00,,---,0.00,VWS V14.01,2013-06-08 23:02:00,
2013-06-08 16:07:00,77.0,22.4,17.72,West,260,0.0,0.0,13,0.00,,---,0.00,VWS V14.01,2013-06-08 23:07:00,
2013-06-08 16:12:00,77.4,22.7,17.72,WSW,237,0.0,0.0,13,0.00,,---,0.00,VWS V14.01,2013-06-08 23:12:00,
2013-06-08 16:17:00,77.5,22.9,17.72,SE,146,0.0,0.0,13,0.00,,---,0.00,VWS V14.01,2013-06-08 23:17:00,
2013-06-08 16:22:00,77.5,22.9,17.72,SSW,197,0.0,0.0,13,0.00,,---,0.00,VWS V14.01,2013-06-08 23:22:00,
2013-06-08 16:27:00,76.8,22.3,17.72,SW,223,0.0,0.0,13,0.00,,---,0.00,VWS V14.01,2013-06-08 23:27:00,
2013-06-08 16:32:00,77.2,22.6,17.72,South,171,0.0,0.0,13,0.00,,---,0.00,VWS V14.01,2013-06-08 23:32:00,
2013-06-08 16:37:00,77.4,22.7,17.72,South,187,0.0,0.0,13,0.00,,---,0.00,VWS V14.01,2013-06-08 23:37:00,
2013-06-08 16:42:00,77.4,22.7,17.72,SSE,165,0.0,0.0,13,0.00,,---,0.00,VWS V14.01,2013-06-08 23:42:00,
2013-06-08 16:47:00,77.4,22.7,17.72,SW,215,0.0,0.0,13,0.00,,---,0.00,VWS V14.01,2013-06-08 23:47:00,
2013-06-08 16:52:00,77.4,22.7,17.72,South,180,0.0,0.0,13,0.00,,---,0.00,VWS V14.01,2013-06-08 23:52:00,
2013-06-08 16:57:00,77.2,22.6,17.72,South,182,0.0,0.0,13,0.00,,---,0.00,VWS V14.01,2013-06-08 23:57:00,
2013-06-08 17:02:00,77.2,22.6,17.72,South,188,0.0,0.0,13,0.00,,---,0.00,VWS V14.01,2013-06-09 00:02:00,
2013-06-08 17:07:00,77.5,22.9,17.72,SSE,161,0.0,0.0,13,0.00,,---,0.00,VWS V14.01,2013-06-09 00:07:00,
2013-06-08 17:12:00,77.2,22.6,17.72,SSE,167,0.0,0.0,13,0.00,,---,0.00,VWS V14.01,2013-06-09 00:12:00,
2013-06-08 17:17:00,77.4,22.7,17.72,South,180,0.0,0.0,13,0.00,,---,0.00,VWS V14.01,2013-06-09 00:17:00,
2013-06-08 17:22:00,77.7,23.0,17.72,South,187,0.0,0.0,13,0.00,,---,0.00,VWS V14.01,2013-06-09 00:22:00,
2013-06-08 17:27:00,77.9,23.1,17.72,SSE,166,0.0,0.0,13,0.00,,---,0.00,VWS V14.01,2013-06-09 00:27:00,
2013-06-08 17:32:00,77.7,23.0,17.72,SSW,207,0.0,0.0,13,0.00,,---,0.00,VWS V14.01,2013-06-09 00:32:00,
2013-06-08 17:37:00,77.5,22.9,17.72,SSE,163,0.0,0.0,13,0.00,,---,0.00,VWS V14.01,2013-06-09 00:37:00,
2013-06-08 17:42:00,77.4,22.7,17.72,South,173,0.0,0.0,13,0.00,,---,0.00,VWS V14.01,2013-06-09 00:42:00,
2013-06-08 17:47:00,77.2,22.6,17.72,SSE,167,0.0,0.0,13,0.00,,---,0.00,VWS V14.01,2013-06-09 00:47:00,
2013-06-08 17:52:00,77.2,22.6,17.72,South,179,0.0,0.0,13,0.00,,---,0.00,VWS V14.01,2013-06-09 00:52:00,
2013-06-08 17:57:00,77.2,22.6,17.72,SSE,165,0.0,0.0,13,0.00,,---,0.00,VWS V14.01,2013-06-09 00:57:00,
2013-06-08 18:02:00,77.5,22.9,17.72,South,172,0.0,0.0,13,0.00,,---,0.00,VWS V14.01,2013-06-09 01:02:00,
2013-06-08 18:07:00,77.4,22.7,17.72,SSE,166,0.0,0.0,13,0.00,,---,0.00,VWS V14.01,2013-06-09 01:07:00,
2013-06-08 18:12:00,77.4,22.7,17.72,South,189,0.0,0.0,13,0.00,,---,0.00,VWS V14.01,2013-06-09 01:12:00,
2013-06-08 18:17:00,77.0,22.4,17.72,SE,146,0.0,0.0,13,0.00,,---,0.00,VWS V14.01,2013-06-09 01:17:00,
2013-06-08 18:22:00,76.6,22.1,17.72,SSW,201,0.0,0.0,13,0.00,,---,0.00,VWS V14.01,2013-06-09 01:22:00,
2013-06-08 18:27:00,76.3,21.9,17.72,WSW,246,0.0,0.0,13,0.00,,---,0.00,VWS V14.01,2013-06-09 01:27:00,
2013-06-08 18:32:00,76.3,21.9,17.72,South,181,0.0,0.0,13,0.00,,---,0.00,VWS V14.01,2013-06-09 01:32:00,
2013-06-08 18:37:00,76.1,21.7,17.72,West,265,0.0,0.0,13,0.00,,---,0.00,VWS V14.01,2013-06-09 01:37:00,
2013-06-08 18:42:00,75.9,21.6,17.72,SSE,167,0.0,0.0,13,0.00,,---,0.00,VWS V14.01,2013-06-09 01:42:00,
2013-06-08 18:47:00,75.7,21.5,17.72,SSW,193,0.0,0.0,13,0.00,,---,0.00,VWS V14.01,2013-06-09 01:47:00,
2013-06-08 18:52:00,75.6,21.3,17.72,SSW,205,0.0,0.0,13,0.00,,---,0.00,VWS V14.01,2013-06-09 01:52:00,
2013-06-08 18:57:00,75.4,21.2,17.72,SW,231,0.0,0.0,13,0.00,,---,0.00,VWS V14.01,2013-06-09 01:57:00,
2013-06-08 19:02:00,75.2,21.0,17.72,SW,216,0.0,0.0,13,0.00,,---,0.00,VWS V14.01,2013-06-09 02:02:00,
2013-06-08 19:07:00,75.0,20.9,17.72,SSE,162,0.0,0.0,13,0.00,,---,0.00,VWS V14.01,2013-06-09 02:07:00,
2013-06-08 19:12:00,74.8,20.7,17.72,SW,230,0.0,0.0,13,0.00,,---,0.00,VWS V14.01,2013-06-09 02:12:00,
2013-06-08 19:17:00,75.0,20.9,17.72,SSE,161,0.0,0.0,13,0.00,,---,0.00,VWS V14.01,2013-06-09 02:17:00,
2013-06-08 19:22:00,74.8,20.7,17.72,WSW,241,0.0,0.0,13,0.00,,---,0.00,VWS V14.01,2013-06-09 02:22:00,
2013-06-08 19:27:00,74.8,20.7,17.72,South,173,0.0,0.0,13,0.00,,---,0.00,VWS V14.01,2013-06-09 02:27:00,
2013-06-08 19:32:00,74.7,20.6,17.72,SSW,208,0.0,0.0,13,0.00,,---,0.00,VWS V14.01,2013-06-09 02:32:00,
2013-06-08 19:37:00,74.3,20.3,17.72,SSW,196,0.0,0.0,13,0.00,,---,0.00,VWS V14.01,2013-06-09 02:37:00,
2013-06-08 19:42:00,74.1,20.2,17.72,SSE,153,0.0,0.0,13,0.00,,---,0.00,VWS V14.01,2013-06-09 02:42:00,
2013-06-08 19:47:00,73.9,20.0,17.72,South,185,0.0,0.0,13,0.00,,---,0.00,VWS V14.01,2013-06-09 02:47:00,
2013-06-08 19:52:00,73.6,19.8,17.72,South,171,0.0,0.0,13,0.00,,---,0.00,VWS V14.01,2013-06-09 02:52:00,
2013-06-08 19:57:00,73.2,21.2,17.72,SSW,200,0.0,0.0,14,0.00,,---,0.00,VWS V14.01,2013-06-09 02:57:00,
2013-06-08 20:02:00,72.9,20.9,17.72,SSE,168,0.0,0.0,14,0.00,,---,0.00,VWS V14.01,2013-06-09 03:02:00,
2013-06-08 20:07:00,72.5,15.0,17.72,SSE,166,0.0,0.0,11,0.00,,---,0.00,VWS V14.01,2013-06-09 03:07:00,
2013-06-08 20:12:00,72.3,20.5,17.72,South,174,0.0,0.0,14,0.00,,---,0.00,VWS V14.01,2013-06-09 03:12:00,
2013-06-08 20:17:00,71.8,14.5,17.72,South,185,0.0,0.0,11,0.00,,---,0.00,VWS V14.01,2013-06-09 03:17:00,
2013-06-08 20:22:00,71.4,16.2,17.72,SSE,156,0.0,0.0,12,0.00,,---,0.00,VWS V14.01,2013-06-09 03:22:00,
2013-06-08 20:27:00,70.9,15.8,17.72,South,186,0.0,0.0,12,0.00,,---,0.00,VWS V14.01,2013-06-09 03:27:00,
2013-06-08 20:32:00,70.3,15.4,17.72,South,170,0.0,0.0,12,0.00,,---,0.00,VWS V14.01,2013-06-09 03:32:00,
2013-06-08 20:37:00,70.0,15.1,17.72,South,178,0.0,0.0,12,0.00,,---,0.00,VWS V14.01,2013-06-09 03:37:00,
2013-06-08 20:42:00,69.6,14.8,17.72,South,169,0.0,0.0,12,0.00,,---,0.00,VWS V14.01,2013-06-09 03:42:00,
2013-06-08 20:47:00,69.4,14.6,17.72,South,182,0.0,0.0,12,0.00,,---,0.00,VWS V14.01,2013-06-09 03:47:00,
2013-06-08 20:52:00,69.3,14.5,17.72,SSE,164,0.0,0.0,12,0.00,,---,0.00,VWS V14.01,2013-06-09 03:52:00,
2013-06-08 20:57:00,69.1,14.4,17.72,South,169,0.0,0.0,12,0.00,,---,0.00,VWS V14.01,2013-06-09 03:57:00,
2013-06-08 21:01:00,68.9,14.2,17.72,SSE,163,0.0,0.0,12,0.00,,---,0.00,VWS V14.01,2013-06-09 04:01:00,
2013-06-08 21:02:00,68.9,14.2,17.72,SSW,206,0.0,0.0,12,0.00,,---,0.00,VWS V14.01,2013-06-09 04:02:00,
2013-06-08 21:07:00,68.7,14.1,17.72,SSW,195,0.0,0.0,12,0.00,,---,0.00,VWS V14.01,2013-06-09 04:07:00,
2013-06-08 21:12:00,68.7,14.1,17.72,South,181,0.0,0.0,12,0.00,,---,0.00,VWS V14.01,2013-06-09 04:12:00,
2013-06-08 21:17:00,68.7,14.1,17.72,SSE,164,0.0,0.0,12,0.00,,---,0.00,VWS V14.01,2013-06-09 04:17:00,
2013-06-08 21:22:00,68.9,14.2,17.72,SSE,149,0.0,0.0,12,0.00,,---,0.00,VWS V14.01,2013-06-09 04:22:00,
2013-06-08 21:27:00,69.1,14.4,17.72,South,186,0.0,0.0,12,0.00,,---,0.00,VWS V14.01,2013-06-09 04:27:00,
2013-06-08 21:32:00,69.3,14.5,17.72,SSE,159,0.0,0.0,12,0.00,,---,0.00,VWS V14.01,2013-06-09 04:32:00,
2013-06-08 21:37:00,69.3,14.5,17.72,South,180,0.0,0.0,12,0.00,,---,0.00,VWS V14.01,2013-06-09 04:37:00,
2013-06-08 21:42:00,69.3,14.5,17.72,SSE,164,0.0,0.0,12,0.00,,---,0.00,VWS V14.01,2013-06-09 04:42:00,
2013-06-08 21:47:00,69.4,14.6,17.72,SSE,162,0.0,0.0,12,0.00,,---,0.00,VWS V14.01,2013-06-09 04:47:00,
2013-06-08 21:52:00,69.4,14.6,17.72,South,184,0.0,0.0,12,0.00,,---,0.00,VWS V14.01,2013-06-09 04:52:00,
2013-06-08 21:57:00,69.6,14.8,17.72,SSE,159,0.0,0.0,12,0.00,,---,0.00,VWS V14.01,2013-06-09 04:57:00,
2013-06-08 22:02:00,69.6,14.8,17.72,SE,133,0.0,0.0,12,0.00,,---,0.00,VWS V14.01,2013-06-09 05:02:00,
2013-06-08 22:07:00,69.8,14.9,17.72,SSE,165,0.0,0.0,12,0.00,,---,0.00,VWS V14.01,2013-06-09 05:07:00,
2013-06-08 22:12:00,69.4,14.6,17.72,SSW,205,0.0,0.0,12,0.00,,---,0.00,VWS V14.01,2013-06-09 05:12:00,
2013-06-08 22:17:00,69.1,14.4,17.72,SSW,202,0.0,0.0,12,0.00,,---,0.00,VWS V14.01,2013-06-09 05:17:00,
2013-06-08 22:22:00,69.1,14.4,17.72,SSE,163,0.0,0.0,12,0.00,,---,0.00,VWS V14.01,2013-06-09 05:22:00,
2013-06-08 22:27:00,69.3,14.5,17.72,SSW,194,0.0,0.0,12,0.00,,---,0.00,VWS V14.01,2013-06-09 05:27:00,
2013-06-08 22:32:00,69.1,14.4,17.72,SSW,194,0.0,0.0,12,0.00,,---,0.00,VWS V14.01,2013-06-09 05:32:00,
2013-06-08 22:37:00,69.1,14.4,17.72,SW,216,0.0,0.0,12,0.00,,---,0.00,VWS V14.01,2013-06-09 05:37:00,
2013-06-08 22:42:00,68.7,14.1,17.72,SSW,210,0.0,0.0,12,0.00,,---,0.00,VWS V14.01,2013-06-09 05:42:00,
2013-06-08 22:47:00,67.8,13.4,17.72,SSW,206,0.0,0.0,12,0.00,,---,0.00,VWS V14.01,2013-06-09 05:47:00,
2013-06-08 22:52:00,67.1,12.8,17.72,SW,223,0.0,0.0,12,0.00,,---,0.00,VWS V14.01,2013-06-09 05:52:00,
2013-06-08 22:57:00,66.7,12.5,17.72,SSE,167,0.0,0.0,12,0.00,,---,0.00,VWS V14.01,2013-06-09 05:57:00,
2013-06-08 23:02:00,66.4,12.3,17.72,South,169,0.0,0.0,12,0.00,,---,0.00,VWS V14.01,2013-06-09 06:02:00,
2013-06-08 23:07:00,65.8,13.6,17.72,South,177,0.0,0.0,13,0.00,,---,0.00,VWS V14.01,2013-06-09 06:07:00,
2013-06-08 23:12:00,65.5,13.4,17.72,WSW,239,0.0,0.0,13,0.00,,---,0.00,VWS V14.01,2013-06-09 06:12:00,
2013-06-08 23:17:00,65.3,13.2,17.72,SSW,193,0.0,0.0,13,0.00,,---,0.00,VWS V14.01,2013-06-09 06:17:00,
2013-06-08 23:22:00,65.5,13.4,17.72,SSW,192,0.0,0.0,13,0.00,,---,0.00,VWS V14.01,2013-06-09 06:22:00,
2013-06-08 23:27:00,65.7,13.5,17.72,SW,221,0.0,0.0,13,0.00,,---,0.00,VWS V14.01,2013-06-09 06:27:00,
2013-06-08 23:32:00,65.8,13.6,17.72,South,175,0.0,0.0,13,0.00,,---,0.00,VWS V14.01,2013-06-09 06:32:00,
2013-06-08 23:37:00,65.8,13.6,17.72,South,169,0.0,0.0,13,0.00,,---,0.00,VWS V14.01,2013-06-09 06:37:00,
2013-06-08 23:42:00,65.3,13.2,17.72,SSW,193,0.0,0.0,13,0.00,,---,0.00,VWS V14.01,2013-06-09 06:42:00,
2013-06-08 23:47:00,64.9,12.9,17.72,South,170,0.0,0.0,13,0.00,,---,0.00,VWS V14.01,2013-06-09 06:47:00,
2013-06-08 23:52:00,64.8,12.8,17.72,SW,229,0.0,0.0,13,0.00,,---,0.00,VWS V14.01,2013-06-09 06:52:00,
2013-06-08 23:57:00,64.8,12.8,17.72,South,175,0.0,0.0,13,0.00,,---,0.00,VWS V14.01,2013-06-09 06:57:00,